Year,Month,Day,Hour,Minute,Value (Times are PST for windspeed in km/hr)
2015,05,22,00,00,10.90
2015,05,22,00,01,14.40
2015,05,22,00,02,10.60
2015,05,22,00,03,4.20
2015,05,22,00,04,10.60
2015,05,22,00,05,10.00
2015,05,22,00,06,4.10
2015,05,22,00,07,13.60
2015,05,22,00,08,8.90
2015,05,22,00,09,8.30
2015,05,22,00,10,1.30
2015,05,22,00,11,8.10
2015,05,22,00,12,5.10
2015,05,22,00,13,3.90
2015,05,22,00,14,15.60
2015,05,22,00,15,19.70
2015,05,22,00,16,16.60
2015,05,22,00,17,1.80
2015,05,22,00,18,5.80
2015,05,22,00,19,3.00
2015,05,22,00,20,6.80
2015,05,22,00,21,0.40
2015,05,22,00,22,0.10
2015,05,22,00,23,2.90
2015,05,22,00,24,0.30
2015,05,22,00,25,0.00
2015,05,22,00,26,0.40
2015,05,22,00,27,0.50
2015,05,22,00,28,1.70
2015,05,22,00,29,0.40
2015,05,22,00,30,4.10
2015,05,22,00,31,0.30
2015,05,22,00,32,1.30
2015,05,22,00,33,6.30
2015,05,22,00,34,0.40
2015,05,22,00,35,10.90
2015,05,22,00,36,4.40
2015,05,22,00,37,5.30
2015,05,22,00,38,9.30
2015,05,22,00,39,9.60
2015,05,22,00,40,12.00
2015,05,22,00,41,20.80
2015,05,22,00,42,6.50
2015,05,22,00,43,19.60
2015,05,22,00,44,20.50
2015,05,22,00,45,14.20
2015,05,22,00,46,17.10
2015,05,22,00,47,13.00
2015,05,22,00,48,29.00
2015,05,22,00,49,24.90
2015,05,22,00,50,27.00
2015,05,22,00,51,20.70
2015,05,22,00,52,19.40
2015,05,22,00,53,12.60
2015,05,22,00,54,11.20
2015,05,22,00,55,6.90
2015,05,22,00,56,23.80
2015,05,22,00,57,12.60
2015,05,22,00,58,0.50
2015,05,22,00,59,5.30
2015,05,22,01,00,5.10
2015,05,22,01,01,1.10
2015,05,22,01,02,0.20
2015,05,22,01,03,3.40
2015,05,22,01,04,7.40
2015,05,22,01,05,0.00
2015,05,22,01,06,0.00
2015,05,22,01,07,0.00
2015,05,22,01,08,0.00
2015,05,22,01,09,0.00
2015,05,22,01,10,0.00
2015,05,22,01,11,0.00
2015,05,22,01,12,0.00
2015,05,22,01,13,0.00
2015,05,22,01,14,8.20
2015,05,22,01,15,18.40
2015,05,22,01,16,10.80
2015,05,22,01,17,0.40
2015,05,22,01,18,0.00
2015,05,22,01,19,0.00
2015,05,22,01,20,0.50
2015,05,22,01,21,0.00
2015,05,22,01,22,0.00
2015,05,22,01,23,0.00
2015,05,22,01,24,2.70
2015,05,22,01,25,31.70
2015,05,22,01,26,26.20
2015,05,22,01,27,2.70
2015,05,22,01,28,19.30
2015,05,22,01,29,13.20
2015,05,22,01,30,0.90
2015,05,22,01,31,14.50
2015,05,22,01,32,0.20
2015,05,22,01,33,0.00
2015,05,22,01,34,0.10
2015,05,22,01,35,9.30
2015,05,22,01,36,10.40
2015,05,22,01,37,1.40
2015,05,22,01,38,2.50
2015,05,22,01,39,16.50
2015,05,22,01,40,18.30
2015,05,22,01,41,16.90
2015,05,22,01,42,24.30
2015,05,22,01,43,24.80
2015,05,22,01,44,23.50
2015,05,22,01,45,23.70
2015,05,22,01,46,14.00
2015,05,22,01,47,5.10
2015,05,22,01,48,8.90
2015,05,22,01,49,7.80
2015,05,22,01,50,21.10
2015,05,22,01,51,24.10
2015,05,22,01,52,24.10
2015,05,22,01,53,36.30
2015,05,22,01,54,28.90
2015,05,22,01,55,37.40
2015,05,22,01,56,37.20
2015,05,22,01,57,32.70
2015,05,22,01,58,28.60
2015,05,22,01,59,10.20
2015,05,22,02,00,8.60
2015,05,22,02,01,5.40
2015,05,22,02,02,5.00
2015,05,22,02,03,5.30
2015,05,22,02,04,1.10
2015,05,22,02,05,8.40
2015,05,22,02,06,7.60
2015,05,22,02,07,9.10
2015,05,22,02,08,8.70
2015,05,22,02,09,5.30
2015,05,22,02,10,0.70
2015,05,22,02,11,0.50
2015,05,22,02,12,0.10
2015,05,22,02,13,0.10
2015,05,22,02,14,0.00
2015,05,22,02,15,0.00
2015,05,22,02,16,0.00
2015,05,22,02,17,0.20
2015,05,22,02,18,0.00
2015,05,22,02,19,0.00
2015,05,22,02,20,0.00
2015,05,22,02,21,0.00
2015,05,22,02,22,2.30
2015,05,22,02,23,0.00
2015,05,22,02,24,0.10
2015,05,22,02,25,2.30
2015,05,22,02,26,0.00
2015,05,22,02,27,0.00
2015,05,22,02,28,0.00
2015,05,22,02,29,0.00
2015,05,22,02,30,0.00
2015,05,22,02,31,0.00
2015,05,22,02,32,0.00
2015,05,22,02,33,0.00
2015,05,22,02,34,5.20
2015,05,22,02,35,6.70
2015,05,22,02,36,0.90
2015,05,22,02,37,0.40
2015,05,22,02,38,0.00
2015,05,22,02,39,0.50
2015,05,22,02,40,0.00
2015,05,22,02,41,0.00
2015,05,22,02,42,0.00
2015,05,22,02,43,0.80
2015,05,22,02,44,2.70
2015,05,22,02,45,0.90
2015,05,22,02,46,0.00
2015,05,22,02,47,0.00
2015,05,22,02,48,0.00
2015,05,22,02,49,0.00
2015,05,22,02,50,0.00
2015,05,22,02,51,0.00
2015,05,22,02,52,0.00
2015,05,22,02,53,0.10
2015,05,22,02,54,0.00
2015,05,22,02,55,0.10
2015,05,22,02,56,0.00
2015,05,22,02,57,0.00
2015,05,22,02,58,0.00
2015,05,22,02,59,0.00
2015,05,22,03,00,0.00
2015,05,22,03,01,0.00
2015,05,22,03,02,0.00
2015,05,22,03,03,0.00
2015,05,22,03,04,0.00
2015,05,22,03,05,0.00
2015,05,22,03,06,0.00
2015,05,22,03,07,0.10
2015,05,22,03,08,0.00
2015,05,22,03,09,0.20
2015,05,22,03,10,4.10
2015,05,22,03,11,0.20
2015,05,22,03,12,0.00
2015,05,22,03,13,0.10
2015,05,22,03,14,0.00
2015,05,22,03,15,0.00
2015,05,22,03,16,0.20
2015,05,22,03,17,3.90
2015,05,22,03,18,0.00
2015,05,22,03,19,0.00
2015,05,22,03,20,1.20
2015,05,22,03,21,4.00
2015,05,22,03,22,0.20
2015,05,22,03,23,0.30
2015,05,22,03,24,4.90
2015,05,22,03,25,9.70
2015,05,22,03,26,2.60
2015,05,22,03,27,0.00
2015,05,22,03,28,1.30
2015,05,22,03,29,3.70
2015,05,22,03,30,4.40
2015,05,22,03,31,0.70
2015,05,22,03,32,6.70
2015,05,22,03,33,12.00
2015,05,22,03,34,7.60
2015,05,22,03,35,11.00
2015,05,22,03,36,7.60
2015,05,22,03,37,10.70
2015,05,22,03,38,9.30
2015,05,22,03,39,8.50
2015,05,22,03,40,6.60
2015,05,22,03,41,11.00
2015,05,22,03,42,9.60
2015,05,22,03,43,13.60
2015,05,22,03,44,16.30
2015,05,22,03,45,18.10
2015,05,22,03,46,30.70
2015,05,22,03,47,23.20
2015,05,22,03,48,7.40
2015,05,22,03,49,9.80
2015,05,22,03,50,17.80
2015,05,22,03,51,12.60
2015,05,22,03,52,12.40
2015,05,22,03,53,14.50
2015,05,22,03,54,20.40
2015,05,22,03,55,15.10
2015,05,22,03,56,17.80
2015,05,22,03,57,10.60
2015,05,22,03,58,10.00
2015,05,22,03,59,9.90
2015,05,22,04,00,4.70
2015,05,22,04,01,9.00
2015,05,22,04,02,6.90
2015,05,22,04,03,6.40
2015,05,22,04,04,8.10
2015,05,22,04,05,10.10
2015,05,22,04,06,5.50
2015,05,22,04,07,6.60
2015,05,22,04,08,8.30
2015,05,22,04,09,2.60
2015,05,22,04,10,6.10
2015,05,22,04,11,8.00
2015,05,22,04,12,2.40
2015,05,22,04,13,3.50
2015,05,22,04,14,4.80
2015,05,22,04,15,5.70
2015,05,22,04,16,9.10
2015,05,22,04,17,11.10
2015,05,22,04,18,2.60
2015,05,22,04,19,7.40
2015,05,22,04,20,5.80
2015,05,22,04,21,7.20
2015,05,22,04,22,3.00
2015,05,22,04,23,7.50
2015,05,22,04,24,3.80
2015,05,22,04,25,7.70
2015,05,22,04,26,8.20
2015,05,22,04,27,1.20
2015,05,22,04,28,3.10
2015,05,22,04,29,5.10
2015,05,22,04,30,4.80
2015,05,22,04,31,7.60
2015,05,22,04,32,2.70
2015,05,22,04,33,8.80
2015,05,22,04,34,11.10
2015,05,22,04,35,13.10
2015,05,22,04,36,2.30
2015,05,22,04,37,3.90
2015,05,22,04,38,0.00
2015,05,22,04,39,0.20
2015,05,22,04,40,3.10
2015,05,22,04,41,0.20
2015,05,22,04,42,0.00
2015,05,22,04,43,0.00
2015,05,22,04,44,6.40
2015,05,22,04,45,5.20
2015,05,22,04,46,8.10
2015,05,22,04,47,7.80
2015,05,22,04,48,1.40
2015,05,22,04,49,0.00
2015,05,22,04,50,0.00
2015,05,22,04,51,0.00
2015,05,22,04,52,0.20
2015,05,22,04,53,0.00
2015,05,22,04,54,0.00
2015,05,22,04,55,0.00
2015,05,22,04,56,0.00
2015,05,22,04,57,0.00
2015,05,22,04,58,0.00
2015,05,22,04,59,0.00
2015,05,22,05,00,1.10
2015,05,22,05,01,7.10
2015,05,22,05,02,9.70
2015,05,22,05,03,7.30
2015,05,22,05,04,10.90
2015,05,22,05,05,11.10
2015,05,22,05,06,8.70
2015,05,22,05,07,11.10
2015,05,22,05,08,8.20
2015,05,22,05,09,4.70
2015,05,22,05,10,0.40
2015,05,22,05,11,0.20
2015,05,22,05,12,0.00
2015,05,22,05,13,0.00
2015,05,22,05,14,0.30
2015,05,22,05,15,4.80
2015,05,22,05,16,5.90
2015,05,22,05,17,1.40
2015,05,22,05,18,0.10
2015,05,22,05,19,0.00
2015,05,22,05,20,0.00
2015,05,22,05,21,3.80
2015,05,22,05,22,4.30
2015,05,22,05,23,4.20
2015,05,22,05,24,0.30
2015,05,22,05,25,8.10
2015,05,22,05,26,9.80
2015,05,22,05,27,8.70
2015,05,22,05,28,11.30
2015,05,22,05,29,9.70
2015,05,22,05,30,11.50
2015,05,22,05,31,7.20
2015,05,22,05,32,2.70
2015,05,22,05,33,0.00
2015,05,22,05,34,0.80
2015,05,22,05,35,0.00
2015,05,22,05,36,0.00
2015,05,22,05,37,0.00
2015,05,22,05,38,0.00
2015,05,22,05,39,0.00
2015,05,22,05,40,0.20
2015,05,22,05,41,0.20
2015,05,22,05,42,0.00
2015,05,22,05,43,0.00
2015,05,22,05,44,0.00
2015,05,22,05,45,0.00
2015,05,22,05,46,1.00
2015,05,22,05,47,3.90
2015,05,22,05,48,0.00
2015,05,22,05,49,0.10
2015,05,22,05,50,0.10
2015,05,22,05,51,0.10
2015,05,22,05,52,0.10
2015,05,22,05,53,0.00
2015,05,22,05,54,1.30
2015,05,22,05,55,1.20
2015,05,22,05,56,0.00
2015,05,22,05,57,0.00
2015,05,22,05,58,0.00
2015,05,22,05,59,0.30
2015,05,22,06,00,5.00
2015,05,22,06,01,4.20
2015,05,22,06,02,0.70
2015,05,22,06,03,0.40
2015,05,22,06,04,0.20
2015,05,22,06,05,0.00
2015,05,22,06,06,0.00
2015,05,22,06,07,0.00
2015,05,22,06,08,0.00
2015,05,22,06,09,0.00
2015,05,22,06,10,0.00
2015,05,22,06,11,3.00
2015,05,22,06,12,0.40
2015,05,22,06,13,0.20
2015,05,22,06,14,0.00
2015,05,22,06,15,0.00
2015,05,22,06,16,0.00
2015,05,22,06,17,0.00
2015,05,22,06,18,0.00
2015,05,22,06,19,0.00
2015,05,22,06,20,0.00
2015,05,22,06,21,0.00
2015,05,22,06,22,0.00
2015,05,22,06,23,0.00
2015,05,22,06,24,0.00
2015,05,22,06,25,0.00
2015,05,22,06,26,0.00
2015,05,22,06,27,0.00
2015,05,22,06,28,0.00
2015,05,22,06,29,0.20
2015,05,22,06,30,1.10
2015,05,22,06,31,6.10
2015,05,22,06,32,5.10
2015,05,22,06,33,2.00
2015,05,22,06,34,4.80
2015,05,22,06,35,0.80
2015,05,22,06,36,0.00
2015,05,22,06,37,0.00
2015,05,22,06,38,0.10
2015,05,22,06,39,0.00
2015,05,22,06,40,0.00
2015,05,22,06,41,3.10
2015,05,22,06,42,3.70
2015,05,22,06,43,0.10
2015,05,22,06,44,0.00
2015,05,22,06,45,1.40
2015,05,22,06,46,0.00
2015,05,22,06,47,0.00
2015,05,22,06,48,0.00
2015,05,22,06,49,0.00
2015,05,22,06,50,0.00
2015,05,22,06,51,0.00
2015,05,22,06,52,0.00
2015,05,22,06,53,0.00
2015,05,22,06,54,0.00
2015,05,22,06,55,0.00
2015,05,22,06,56,0.00
2015,05,22,06,57,0.00
2015,05,22,06,58,0.00
2015,05,22,06,59,0.00
2015,05,22,07,00,0.00
2015,05,22,07,01,0.00
2015,05,22,07,02,0.00
2015,05,22,07,03,0.00
2015,05,22,07,04,0.00
2015,05,22,07,05,0.00
2015,05,22,07,06,0.00
2015,05,22,07,07,0.00
2015,05,22,07,08,0.00
2015,05,22,07,09,0.00
2015,05,22,07,10,0.00
2015,05,22,07,11,0.00
2015,05,22,07,12,0.00
2015,05,22,07,13,0.00
2015,05,22,07,14,0.00
2015,05,22,07,15,0.00
2015,05,22,07,16,0.00
2015,05,22,07,17,0.00
2015,05,22,07,18,0.00
2015,05,22,07,19,0.00
2015,05,22,07,20,0.00
2015,05,22,07,21,0.00
2015,05,22,07,22,0.00
2015,05,22,07,23,0.00
2015,05,22,07,24,0.00
2015,05,22,07,25,0.00
2015,05,22,07,26,0.00
2015,05,22,07,27,0.00
2015,05,22,07,28,0.00
2015,05,22,07,29,0.00
2015,05,22,07,30,0.00
2015,05,22,07,31,0.00
2015,05,22,07,32,0.00
2015,05,22,07,33,0.00
2015,05,22,07,34,0.10
2015,05,22,07,35,0.00
2015,05,22,07,36,0.00
2015,05,22,07,37,0.00
2015,05,22,07,38,0.00
2015,05,22,07,39,0.00
2015,05,22,07,40,0.00
2015,05,22,07,41,0.00
2015,05,22,07,42,0.00
2015,05,22,07,43,0.00
2015,05,22,07,44,0.00
2015,05,22,07,45,0.00
2015,05,22,07,46,0.00
2015,05,22,07,47,0.00
2015,05,22,07,48,0.00
2015,05,22,07,49,0.00
2015,05,22,07,50,0.00
2015,05,22,07,51,0.00
2015,05,22,07,52,0.00
2015,05,22,07,53,0.00
2015,05,22,07,54,0.00
2015,05,22,07,55,0.00
2015,05,22,07,56,0.00
2015,05,22,07,57,0.00
2015,05,22,07,58,0.00
2015,05,22,07,59,0.00
2015,05,22,08,00,0.00
2015,05,22,08,01,0.00
2015,05,22,08,02,0.00
2015,05,22,08,03,0.00
2015,05,22,08,04,0.00
2015,05,22,08,05,0.00
2015,05,22,08,06,0.00
2015,05,22,08,07,0.00
2015,05,22,08,08,0.00
2015,05,22,08,09,0.00
2015,05,22,08,10,0.00
2015,05,22,08,11,0.00
2015,05,22,08,12,0.00
2015,05,22,08,13,0.00
2015,05,22,08,14,0.00
2015,05,22,08,15,0.00
2015,05,22,08,16,0.00
2015,05,22,08,17,0.00
2015,05,22,08,18,0.00
2015,05,22,08,19,0.00
2015,05,22,08,20,0.00
2015,05,22,08,21,0.00
2015,05,22,08,22,0.00
2015,05,22,08,23,0.00
2015,05,22,08,24,0.00
2015,05,22,08,25,0.00
2015,05,22,08,26,0.00
2015,05,22,08,27,0.00
2015,05,22,08,28,0.00
2015,05,22,08,29,0.00
2015,05,22,08,30,0.00
2015,05,22,08,31,0.00
2015,05,22,08,32,0.00
2015,05,22,08,33,0.00
2015,05,22,08,34,0.00
2015,05,22,08,35,0.00
2015,05,22,08,36,0.00
2015,05,22,08,37,0.00
2015,05,22,08,38,0.00
2015,05,22,08,39,0.00
2015,05,22,08,40,0.00
2015,05,22,08,41,0.00
2015,05,22,08,42,0.00
2015,05,22,08,43,0.00
2015,05,22,08,44,0.00
2015,05,22,08,45,0.00
2015,05,22,08,46,0.00
2015,05,22,08,47,0.00
2015,05,22,08,48,0.00
2015,05,22,08,49,0.00
2015,05,22,08,50,0.00
2015,05,22,08,51,0.00
2015,05,22,08,52,0.00
2015,05,22,08,53,0.00
2015,05,22,08,54,0.00
2015,05,22,08,55,0.00
2015,05,22,08,56,0.00
2015,05,22,08,57,0.00
2015,05,22,08,58,0.00
2015,05,22,08,59,0.00
2015,05,22,09,00,0.00
2015,05,22,09,01,0.00
2015,05,22,09,02,0.00
2015,05,22,09,03,0.00
2015,05,22,09,04,0.00
2015,05,22,09,05,0.00
2015,05,22,09,06,0.00
2015,05,22,09,07,0.00
2015,05,22,09,08,0.00
2015,05,22,09,09,0.00
2015,05,22,09,10,0.00
2015,05,22,09,11,0.00
2015,05,22,09,12,0.00
2015,05,22,09,13,0.00
2015,05,22,09,14,0.00
2015,05,22,09,15,0.00
2015,05,22,09,16,0.00
2015,05,22,09,17,0.00
2015,05,22,09,18,0.00
2015,05,22,09,19,0.00
2015,05,22,09,20,0.00
2015,05,22,09,21,0.00
2015,05,22,09,22,0.00
2015,05,22,09,23,0.00
2015,05,22,09,24,0.00
2015,05,22,09,25,0.00
2015,05,22,09,26,0.00
2015,05,22,09,27,0.00
2015,05,22,09,28,0.00
2015,05,22,09,29,0.00
2015,05,22,09,30,0.00
2015,05,22,09,31,0.00
2015,05,22,09,32,0.00
2015,05,22,09,33,0.00
2015,05,22,09,34,0.00
2015,05,22,09,35,0.00
2015,05,22,09,36,0.00
2015,05,22,09,37,0.00
2015,05,22,09,38,0.00
2015,05,22,09,39,0.00
2015,05,22,09,40,0.00
2015,05,22,09,41,0.00
2015,05,22,09,42,0.00
2015,05,22,09,43,0.00
2015,05,22,09,44,0.00
2015,05,22,09,45,0.00
2015,05,22,09,46,0.00
2015,05,22,09,47,0.00
2015,05,22,09,48,0.00
2015,05,22,09,49,0.00
2015,05,22,09,50,0.00
2015,05,22,09,51,0.00
2015,05,22,09,52,0.00
2015,05,22,09,53,0.00
2015,05,22,09,54,0.00
2015,05,22,09,55,0.00
2015,05,22,09,56,0.00
2015,05,22,09,57,0.00
2015,05,22,09,58,0.00
2015,05,22,09,59,0.00
2015,05,22,10,00,0.00
2015,05,22,10,01,0.00
2015,05,22,10,02,0.00
2015,05,22,10,03,0.00
2015,05,22,10,04,0.00
2015,05,22,10,05,0.00
2015,05,22,10,06,0.00
2015,05,22,10,07,0.00
2015,05,22,10,08,0.00
2015,05,22,10,09,0.00
2015,05,22,10,10,0.00
2015,05,22,10,11,0.00
2015,05,22,10,12,0.00
2015,05,22,10,13,0.00
2015,05,22,10,14,0.00
2015,05,22,10,15,0.00
2015,05,22,10,16,0.00
2015,05,22,10,17,0.00
2015,05,22,10,18,0.00
2015,05,22,10,19,0.00
2015,05,22,10,20,0.00
2015,05,22,10,21,0.00
2015,05,22,10,22,0.00
2015,05,22,10,23,0.00
2015,05,22,10,24,0.00
2015,05,22,10,25,0.00
2015,05,22,10,26,0.00
2015,05,22,10,27,0.00
2015,05,22,10,28,0.00
2015,05,22,10,29,0.00
2015,05,22,10,30,0.00
2015,05,22,10,31,0.00
2015,05,22,10,32,0.00
2015,05,22,10,33,0.00
2015,05,22,10,34,0.00
2015,05,22,10,35,0.00
2015,05,22,10,36,0.00
2015,05,22,10,37,0.00
2015,05,22,10,38,0.00
2015,05,22,10,39,0.00
2015,05,22,10,40,0.00
2015,05,22,10,41,0.00
2015,05,22,10,42,0.00
2015,05,22,10,43,0.00
2015,05,22,10,44,0.00
2015,05,22,10,45,0.00
2015,05,22,10,46,0.00
2015,05,22,10,47,0.00
2015,05,22,10,48,0.00
2015,05,22,10,49,0.00
2015,05,22,10,50,0.00
2015,05,22,10,51,0.00
2015,05,22,10,52,0.00
2015,05,22,10,53,0.00
2015,05,22,10,54,0.00
2015,05,22,10,55,0.00
2015,05,22,10,56,0.00
2015,05,22,10,57,0.00
2015,05,22,10,58,0.00
2015,05,22,10,59,0.00
2015,05,22,11,00,0.00
2015,05,22,11,01,0.00
2015,05,22,11,02,0.00
2015,05,22,11,03,0.00
2015,05,22,11,04,0.00
2015,05,22,11,05,0.00
2015,05,22,11,06,0.00
2015,05,22,11,07,0.00
2015,05,22,11,08,0.00
2015,05,22,11,09,0.00
2015,05,22,11,10,0.00
2015,05,22,11,11,0.00
2015,05,22,11,12,0.00
2015,05,22,11,13,0.00
2015,05,22,11,14,0.00
2015,05,22,11,15,0.00
2015,05,22,11,16,0.00
2015,05,22,11,17,0.00
2015,05,22,11,18,0.00
2015,05,22,11,19,0.00
2015,05,22,11,20,0.00
2015,05,22,11,21,0.00
2015,05,22,11,22,0.00
2015,05,22,11,23,0.00
2015,05,22,11,24,0.00
2015,05,22,11,25,0.00
2015,05,22,11,26,0.00
2015,05,22,11,27,0.00
2015,05,22,11,28,0.00
2015,05,22,11,29,0.00
2015,05,22,11,30,0.00
2015,05,22,11,31,0.00
2015,05,22,11,32,0.00
2015,05,22,11,33,0.00
2015,05,22,11,34,0.00
2015,05,22,11,35,0.00
2015,05,22,11,36,0.00
2015,05,22,11,37,0.00
2015,05,22,11,38,0.00
2015,05,22,11,39,0.00
2015,05,22,11,40,0.00
2015,05,22,11,41,0.00
2015,05,22,11,42,0.00
2015,05,22,11,43,0.00
2015,05,22,11,44,0.00
2015,05,22,11,45,0.00
2015,05,22,11,46,0.00
2015,05,22,11,47,0.00
2015,05,22,11,48,0.00
2015,05,22,11,49,0.00
2015,05,22,11,50,0.00
2015,05,22,11,51,0.00
2015,05,22,11,52,0.00
2015,05,22,11,53,0.00
2015,05,22,11,54,0.00
2015,05,22,11,55,0.00
2015,05,22,11,56,0.00
2015,05,22,11,57,0.00
2015,05,22,11,58,0.00
2015,05,22,11,59,0.00
2015,05,22,12,00,0.00
2015,05,22,12,01,0.00
2015,05,22,12,02,0.00
2015,05,22,12,03,0.00
2015,05,22,12,04,0.00
2015,05,22,12,05,0.00
2015,05,22,12,06,0.00
2015,05,22,12,07,0.00
2015,05,22,12,08,0.00
2015,05,22,12,09,0.00
2015,05,22,12,10,0.00
2015,05,22,12,11,0.00
2015,05,22,12,12,0.00
2015,05,22,12,13,0.00
2015,05,22,12,14,0.00
2015,05,22,12,15,0.00
2015,05,22,12,16,0.00
2015,05,22,12,17,0.00
2015,05,22,12,18,0.00
2015,05,22,12,19,0.00
2015,05,22,12,20,0.00
2015,05,22,12,21,0.00
2015,05,22,12,22,0.00
2015,05,22,12,23,0.00
2015,05,22,12,24,0.00
2015,05,22,12,25,0.00
2015,05,22,12,26,0.00
2015,05,22,12,27,0.00
2015,05,22,12,28,0.00
2015,05,22,12,29,0.00
2015,05,22,12,30,0.00
2015,05,22,12,31,0.00
2015,05,22,12,32,0.00
2015,05,22,12,33,0.00
2015,05,22,12,34,0.00
2015,05,22,12,35,0.00
2015,05,22,12,36,0.00
2015,05,22,12,37,0.00
2015,05,22,12,38,0.00
2015,05,22,12,39,0.00
2015,05,22,12,40,0.00
2015,05,22,12,41,0.00
2015,05,22,12,42,0.00
2015,05,22,12,43,0.00
2015,05,22,12,44,0.00
2015,05,22,12,45,0.00
2015,05,22,12,46,0.00
2015,05,22,12,47,0.00
2015,05,22,12,48,0.00
2015,05,22,12,49,0.00
2015,05,22,12,50,0.00
2015,05,22,12,51,0.00
2015,05,22,12,52,0.00
2015,05,22,12,53,0.00
2015,05,22,12,54,0.00
2015,05,22,12,55,0.00
2015,05,22,12,56,0.00
2015,05,22,12,57,0.00
2015,05,22,12,58,0.00
2015,05,22,12,59,0.00
2015,05,22,13,00,0.00
2015,05,22,13,01,0.00
2015,05,22,13,02,0.00
2015,05,22,13,03,0.00
2015,05,22,13,04,0.00
2015,05,22,13,05,0.00
2015,05,22,13,06,0.00
2015,05,22,13,07,0.00
2015,05,22,13,08,0.00
2015,05,22,13,09,0.00
2015,05,22,13,10,0.00
2015,05,22,13,11,0.00
2015,05,22,13,12,0.00
2015,05,22,13,13,0.00
2015,05,22,13,14,0.00
2015,05,22,13,15,0.00
2015,05,22,13,16,0.00
2015,05,22,13,17,0.00
2015,05,22,13,18,0.00
2015,05,22,13,19,0.00
2015,05,22,13,20,0.00
2015,05,22,13,21,0.00
2015,05,22,13,22,0.00
2015,05,22,13,23,0.00
2015,05,22,13,24,0.00
2015,05,22,13,25,0.00
2015,05,22,13,26,0.00
2015,05,22,13,27,0.00
2015,05,22,13,28,0.00
2015,05,22,13,29,0.00
2015,05,22,13,30,0.00
2015,05,22,13,31,0.00
2015,05,22,13,32,0.00
2015,05,22,13,33,0.00
2015,05,22,13,34,0.00
2015,05,22,13,35,0.00
2015,05,22,13,36,0.00
2015,05,22,13,37,0.00
2015,05,22,13,38,0.00
2015,05,22,13,39,0.00
2015,05,22,13,40,0.00
2015,05,22,13,41,0.00
2015,05,22,13,42,0.00
2015,05,22,13,43,0.00
2015,05,22,13,44,0.00
2015,05,22,13,45,0.00
2015,05,22,13,46,0.00
2015,05,22,13,47,0.00
2015,05,22,13,48,0.00
2015,05,22,13,49,0.00
2015,05,22,13,50,0.00
2015,05,22,13,51,0.00
2015,05,22,13,52,0.00
2015,05,22,13,53,0.00
2015,05,22,13,54,0.00
2015,05,22,13,55,0.00
2015,05,22,13,56,0.00
2015,05,22,13,57,0.00
2015,05,22,13,58,0.00
2015,05,22,13,59,0.00
2015,05,22,14,00,0.00
2015,05,22,14,01,0.00
2015,05,22,14,02,0.00
2015,05,22,14,03,0.00
2015,05,22,14,04,0.00
2015,05,22,14,05,0.00
2015,05,22,14,06,0.00
2015,05,22,14,07,0.00
2015,05,22,14,08,0.00
2015,05,22,14,09,0.00
2015,05,22,14,10,0.00
2015,05,22,14,11,0.00
2015,05,22,14,12,0.00
2015,05,22,14,13,0.00
2015,05,22,14,14,0.00
2015,05,22,14,15,0.00
2015,05,22,14,16,0.00
2015,05,22,14,17,0.00
2015,05,22,14,18,0.00
2015,05,22,14,19,0.00
2015,05,22,14,20,0.00
2015,05,22,14,21,0.00
2015,05,22,14,22,0.00
2015,05,22,14,23,0.00
2015,05,22,14,24,0.00
2015,05,22,14,25,0.00
2015,05,22,14,26,0.00
2015,05,22,14,27,0.00
2015,05,22,14,28,0.00
2015,05,22,14,29,0.00
2015,05,22,14,30,0.00
2015,05,22,14,31,0.00
2015,05,22,14,32,0.00
2015,05,22,14,33,0.00
2015,05,22,14,34,0.00
2015,05,22,14,35,0.00
2015,05,22,14,36,0.00
2015,05,22,14,37,0.00
2015,05,22,14,38,0.00
2015,05,22,14,39,0.00
2015,05,22,14,40,0.00
2015,05,22,14,41,0.00
2015,05,22,14,42,0.00
2015,05,22,14,43,0.00
2015,05,22,14,44,0.00
2015,05,22,14,45,0.00
2015,05,22,14,46,0.00
2015,05,22,14,47,0.00
2015,05,22,14,48,0.00
2015,05,22,14,49,0.00
2015,05,22,14,50,0.00
2015,05,22,14,51,0.00
2015,05,22,14,52,0.00
2015,05,22,14,53,0.00
2015,05,22,14,54,0.00
2015,05,22,14,55,0.00
2015,05,22,14,56,0.00
2015,05,22,14,57,0.00
2015,05,22,14,58,0.00
2015,05,22,14,59,0.00
2015,05,22,15,00,0.00
2015,05,22,15,01,0.00
2015,05,22,15,02,0.00
2015,05,22,15,03,0.00
2015,05,22,15,04,0.00
2015,05,22,15,05,0.00
2015,05,22,15,06,0.00
2015,05,22,15,07,0.00
2015,05,22,15,08,0.00
2015,05,22,15,09,0.00
2015,05,22,15,10,0.00
2015,05,22,15,11,0.00
2015,05,22,15,12,0.00
2015,05,22,15,13,0.00
2015,05,22,15,14,0.00
2015,05,22,15,15,0.00
2015,05,22,15,16,0.00
2015,05,22,15,17,0.00
2015,05,22,15,18,0.00
2015,05,22,15,19,0.00
2015,05,22,15,20,0.00
2015,05,22,15,21,0.00
2015,05,22,15,22,0.00
2015,05,22,15,23,0.00
2015,05,22,15,24,0.00
2015,05,22,15,25,0.00
2015,05,22,15,26,0.00
2015,05,22,15,27,0.00
2015,05,22,15,28,0.00
2015,05,22,15,29,0.00
2015,05,22,15,30,0.00
2015,05,22,15,31,0.00
2015,05,22,15,32,0.00
2015,05,22,15,33,0.00
2015,05,22,15,34,0.00
2015,05,22,15,35,0.00
2015,05,22,15,36,0.00
2015,05,22,15,37,0.00
2015,05,22,15,38,0.00
2015,05,22,15,39,0.00
2015,05,22,15,40,0.00
2015,05,22,15,41,0.00
2015,05,22,15,42,0.00
2015,05,22,15,43,0.00
2015,05,22,15,44,0.00
2015,05,22,15,45,0.00
2015,05,22,15,46,0.00
2015,05,22,15,47,0.00
2015,05,22,15,48,0.00
2015,05,22,15,49,0.00
2015,05,22,15,50,0.00
2015,05,22,15,51,0.00
2015,05,22,15,52,0.00
2015,05,22,15,53,0.00
2015,05,22,15,54,0.00
2015,05,22,15,55,0.00
2015,05,22,15,56,0.00
2015,05,22,15,57,0.00
2015,05,22,15,58,0.00
2015,05,22,15,59,0.00
2015,05,22,16,00,0.00
2015,05,22,16,01,0.00
2015,05,22,16,02,0.00
2015,05,22,16,03,0.00
2015,05,22,16,04,0.00
2015,05,22,16,05,0.00
2015,05,22,16,06,0.00
2015,05,22,16,07,0.00
2015,05,22,16,08,0.00
2015,05,22,16,09,0.00
2015,05,22,16,10,0.00
2015,05,22,16,11,0.00
2015,05,22,16,12,0.00
2015,05,22,16,13,0.00
2015,05,22,16,14,0.00
2015,05,22,16,15,0.00
2015,05,22,16,16,0.00
2015,05,22,16,17,0.00
2015,05,22,16,18,0.00
2015,05,22,16,19,0.00
2015,05,22,16,20,0.00
2015,05,22,16,21,0.00
2015,05,22,16,22,0.00
2015,05,22,16,23,0.00
2015,05,22,16,24,0.00
2015,05,22,16,25,0.00
2015,05,22,16,26,0.00
2015,05,22,16,27,0.00
2015,05,22,16,28,0.00
2015,05,22,16,29,0.00
2015,05,22,16,30,0.00
2015,05,22,16,31,0.00
2015,05,22,16,32,0.00
2015,05,22,16,33,0.00
2015,05,22,16,34,0.00
2015,05,22,16,35,0.00
2015,05,22,16,36,0.00
2015,05,22,16,37,0.00
2015,05,22,16,38,0.00
2015,05,22,16,39,0.00
2015,05,22,16,40,0.00
2015,05,22,16,41,0.00
2015,05,22,16,42,0.00
2015,05,22,16,43,0.00
2015,05,22,16,44,0.00
2015,05,22,16,45,0.00
2015,05,22,16,46,0.00
2015,05,22,16,47,0.00
2015,05,22,16,48,0.00
2015,05,22,16,49,0.00
2015,05,22,16,50,0.00
2015,05,22,16,51,0.00
2015,05,22,16,52,0.00
2015,05,22,16,53,0.00
2015,05,22,16,54,0.00
2015,05,22,16,55,0.00
2015,05,22,16,56,0.00
2015,05,22,16,57,0.00
2015,05,22,16,58,0.00
2015,05,22,16,59,0.00
2015,05,22,17,00,0.00
2015,05,22,17,01,0.00
2015,05,22,17,02,0.00
2015,05,22,17,03,0.00
2015,05,22,17,04,0.00
2015,05,22,17,05,0.00
2015,05,22,17,06,0.00
2015,05,22,17,07,0.00
2015,05,22,17,08,0.00
2015,05,22,17,09,0.00
2015,05,22,17,10,0.00
2015,05,22,17,11,0.00
2015,05,22,17,12,0.00
2015,05,22,17,13,0.00
2015,05,22,17,14,0.00
2015,05,22,17,15,0.00
2015,05,22,17,16,0.00
2015,05,22,17,17,0.00
2015,05,22,17,18,0.00
2015,05,22,17,19,0.00
2015,05,22,17,20,0.00
2015,05,22,17,21,0.00
2015,05,22,17,22,0.00
2015,05,22,17,23,0.00
2015,05,22,17,24,0.00
2015,05,22,17,25,0.00
2015,05,22,17,26,0.00
2015,05,22,17,27,0.00
2015,05,22,17,28,0.00
2015,05,22,17,29,0.00
2015,05,22,17,30,0.00
2015,05,22,17,31,0.00
2015,05,22,17,32,0.00
2015,05,22,17,33,0.00
2015,05,22,17,34,0.00
2015,05,22,17,35,0.00
2015,05,22,17,36,0.00
2015,05,22,17,37,0.00
2015,05,22,17,38,0.00
2015,05,22,17,39,0.00
2015,05,22,17,40,0.00
2015,05,22,17,41,0.00
2015,05,22,17,42,0.00
2015,05,22,17,43,0.00
2015,05,22,17,44,0.00
2015,05,22,17,45,0.00
2015,05,22,17,46,0.00
2015,05,22,17,47,0.00
2015,05,22,17,48,0.00
2015,05,22,17,49,0.00
2015,05,22,17,50,0.00
2015,05,22,17,51,0.00
2015,05,22,17,52,0.00
2015,05,22,17,53,0.00
2015,05,22,17,54,0.00
2015,05,22,17,55,0.00
2015,05,22,17,56,0.00
2015,05,22,17,57,0.00
2015,05,22,17,58,0.00
2015,05,22,17,59,0.00
2015,05,22,18,00,0.00
2015,05,22,18,01,0.00
2015,05,22,18,02,0.00
2015,05,22,18,03,0.00